,,Stat6,,Stat2,,Stat8,,Stat9,,Stat10,,Wind1,,Wind1,
time,status,PA1M_AVG,status,PR1M_SUM,status,RH1M_AVG,status,SR1M_AVG,status,TA1M_AVG,status,W1dAve1m,status,W1sAve1m,
2009-06-12, 00:00:00,VALID,918.409,VALID,0,VALID,100,VALID,-0.0679233,VALID,20.9116,VALID,178,VALID,0.231326,
2009-06-12, 00:01:00,VALID,918.432,VALID,0,VALID,100,VALID,-0.0339617,VALID,20.9213,VALID,171,VALID,0.0337976,
2009-06-12, 00:02:00,VALID,918.428,VALID,0,VALID,100,VALID,-0.0679233,VALID,20.9381,VALID,167,VALID,0,
2009-06-12, 00:03:00,VALID,918.429,VALID,0,VALID,100,VALID,-0.0849042,VALID,20.9484,VALID,170,VALID,0,
2009-06-12, 00:04:00,VALID,918.429,VALID,0,VALID,100,VALID,-0.0679233,VALID,20.9438,VALID,170,VALID,0,
2009-06-12, 00:05:00,VALID,918.434,VALID,0,VALID,100,VALID,-0.101885,VALID,20.9703,VALID,170,VALID,0,
2009-06-12, 00:06:00,VALID,918.446,VALID,0,VALID,100,VALID,-0.0679233,VALID,20.9827,VALID,163,VALID,0,
2009-06-12, 00:07:00,VALID,918.438,VALID,0,VALID,100,VALID,-0.0679233,VALID,21.006,VALID,102,VALID,0.0922256,
2009-06-12, 00:08:00,VALID,918.442,VALID,0,VALID,100,VALID,-0.0679233,VALID,21.0382,VALID,66,VALID,0.00572917,
2009-06-12, 00:09:00,VALID,918.431,VALID,0,VALID,100,VALID,-0.0509425,VALID,21.0255,VALID,52,VALID,0,
2009-06-12, 00:10:00,VALID,918.424,VALID,0,VALID,100,VALID,-0.0509425,VALID,21.0055,VALID,52,VALID,0,
2009-06-12, 00:11:00,VALID,918.408,VALID,0,VALID,100,VALID,-0.0339617,VALID,20.963,VALID,52,VALID,0,
2009-06-12, 00:12:00,VALID,918.386,VALID,0,VALID,100,VALID,-0.0509425,VALID,20.9405,VALID,52,VALID,0,
2009-06-12, 00:13:00,VALID,918.36,VALID,0,VALID,100,VALID,-0.0509425,VALID,20.9311,VALID,52,VALID,0,
2009-06-12, 00:14:00,VALID,918.354,VALID,0,VALID,100,VALID,-0.0849042,VALID,20.9216,VALID,52,VALID,0,
2009-06-12, 00:15:00,VALID,918.333,VALID,0,VALID,100,VALID,-0.0339617,VALID,20.8821,VALID,52,VALID,0,
2009-06-12, 00:16:00,VALID,918.332,VALID,0,VALID,100,VALID,-0.0169808,VALID,20.8491,VALID,52,VALID,0,
2009-06-12, 00:17:00,VALID,918.32,VALID,0,VALID,100,VALID,0,VALID,20.8464,VALID,52,VALID,0,
2009-06-12, 00:18:00,VALID,918.319,VALID,0,VALID,100,VALID,-0.0339617,VALID,20.8529,VALID,52,VALID,0,
2009-06-12, 00:19:00,VALID,918.299,VALID,0,VALID,100,VALID,-0.0679233,VALID,20.8662,VALID,52,VALID,0,
2009-06-12, 00:20:00,VALID,918.29,VALID,0,VALID,100,VALID,0,VALID,20.8821,VALID,51,VALID,0,
2009-06-12, 00:21:00,VALID,918.294,VALID,0,VALID,100,VALID,-0.0509425,VALID,20.8791,VALID,51,VALID,0,
2009-06-12, 00:22:00,VALID,918.297,VALID,0,VALID,100,VALID,-0.0509425,VALID,20.8789,VALID,51,VALID,0,
2009-06-12, 00:23:00,VALID,918.293,VALID,0,VALID,100,VALID,-0.0339617,VALID,20.9086,VALID,51,VALID,0,
2009-06-12, 00:24:00,VALID,918.311,VALID,0,VALID,100,VALID,-0.0169808,VALID,20.9143,VALID,51,VALID,0,
2009-06-12, 00:25:00,VALID,918.302,VALID,0,VALID,100,VALID,0,VALID,20.9273,VALID,51,VALID,0,
2009-06-12, 00:26:00,VALID,918.289,VALID,0,VALID,100,VALID,-0.0509425,VALID,20.9243,VALID,51,VALID,0,
2009-06-12, 00:27:00,VALID,918.279,VALID,0,VALID,100,VALID,-0.0509425,VALID,20.8916,VALID,51,VALID,0,
2009-06-12, 00:28:00,VALID,918.268,VALID,0,VALID,100,VALID,-0.0509425,VALID,20.8854,VALID,51,VALID,0,
2009-06-12, 00:29:00,VALID,918.248,VALID,0,VALID,100,VALID,-0.0169808,VALID,20.8919,VALID,51,VALID,0,
2009-06-12, 00:30:00,VALID,918.245,VALID,0,VALID,100,VALID,-0.0339617,VALID,20.9013,VALID,51,VALID,0,
2009-06-12, 00:31:00,VALID,918.238,VALID,0,VALID,100,VALID,-0.0169808,VALID,20.9081,VALID,51,VALID,0,
2009-06-12, 00:32:00,VALID,918.221,VALID,0,VALID,100,VALID,-0.0509425,VALID,20.8984,VALID,51,VALID,0,
2009-06-12, 00:33:00,VALID,918.206,VALID,0,VALID,100,VALID,0,VALID,20.8783,VALID,50,VALID,0,
2009-06-12, 00:34:00,VALID,918.193,VALID,0,VALID,100,VALID,-0.0169808,VALID,20.8724,VALID,50,VALID,0,
2009-06-12, 00:35:00,VALID,918.186,VALID,0,VALID,100,VALID,-0.0169808,VALID,20.8464,VALID,50,VALID,0,
2009-06-12, 00:36:00,VALID,918.173,VALID,0,VALID,100,VALID,-0.0679233,VALID,20.7977,VALID,50,VALID,0,
2009-06-12, 00:37:00,VALID,918.171,VALID,0,VALID,100,VALID,-0.0169808,VALID,20.7653,VALID,50,VALID,0,
2009-06-12, 00:38:00,VALID,918.166,VALID,0,VALID,100,VALID,-0.0509425,VALID,20.8045,VALID,51,VALID,0,
2009-06-12, 00:39:00,VALID,918.174,VALID,0,VALID,100,VALID,-0.0169808,VALID,20.804,VALID,57,VALID,0,
2009-06-12, 00:40:00,VALID,918.169,VALID,0,VALID,100,VALID,-0.0169808,VALID,20.7942,VALID,80,VALID,0.119186,
2009-06-12, 00:41:00,VALID,918.155,VALID,0,VALID,100,VALID,-0.0169808,VALID,20.785,VALID,105,VALID,0.032848,
2009-06-12, 00:42:00,VALID,918.144,VALID,0,VALID,100,VALID,-0.0339617,VALID,20.7718,VALID,123,VALID,0,
2009-06-12, 00:43:00,VALID,918.132,VALID,0,VALID,100,VALID,-0.0169808,VALID,20.7585,VALID,123,VALID,0,
2009-06-12, 00:44:00,VALID,918.127,VALID,0,VALID,100,VALID,-0.0169808,VALID,20.7088,VALID,115,VALID,0,
2009-06-12, 00:45:00,VALID,918.114,VALID,0,VALID,100,VALID,-0.0169808,VALID,20.6709,VALID,108,VALID,0,
2009-06-12, 00:46:00,VALID,918.108,VALID,0,VALID,100,VALID,-0.0339617,VALID,20.6352,VALID,102,VALID,0,
2009-06-12, 00:47:00,VALID,918.067,VALID,0,VALID,100,VALID,-0.0169808,VALID,20.599,VALID,90,VALID,0,
2009-06-12, 00:48:00,VALID,918.061,VALID,0,VALID,100,VALID,-0.0169808,VALID,20.5797,VALID,85,VALID,0,
2009-06-12, 00:49:00,VALID,918.044,VALID,0,VALID,100,VALID,0,VALID,20.5443,VALID,84,VALID,0,
2009-06-12, 00:50:00,VALID,918.029,VALID,0,VALID,100,VALID,0,VALID,20.5346,VALID,84,VALID,0,
2009-06-12, 00:51:00,VALID,918.022,VALID,0,VALID,100,VALID,-0.0169808,VALID,20.5413,VALID,84,VALID,0,
2009-06-12, 00:52:00,VALID,918.001,VALID,0,VALID,100,VALID,-0.0339617,VALID,20.5183,VALID,84,VALID,0,
2009-06-12, 00:53:00,VALID,918.002,VALID,0,VALID,100,VALID,-0.0509425,VALID,20.5056,VALID,84,VALID,0,
2009-06-12, 00:54:00,VALID,917.992,VALID,0,VALID,100,VALID,-0.0169808,VALID,20.4959,VALID,84,VALID,0,
2009-06-12, 00:55:00,VALID,917.987,VALID,0,VALID,100,VALID,-0.0679233,VALID,20.4796,VALID,84,VALID,0,
2009-06-12, 00:56:00,VALID,917.979,VALID,0,VALID,100,VALID,-0.0679233,VALID,20.4537,VALID,84,VALID,0,
2009-06-12, 00:57:00,VALID,917.996,VALID,0,VALID,100,VALID,-0.0509425,VALID,20.4474,VALID,107,VALID,0,
2009-06-12, 00:58:00,VALID,917.988,VALID,0,VALID,100,VALID,0,VALID,20.4372,VALID,154,VALID,0,
2009-06-12, 00:59:00,VALID,917.989,VALID,0,VALID,100,VALID,-0.0679233,VALID,20.4574,VALID,154,VALID,0,
2009-06-12, 01:00:00,VALID,917.988,VALID,0,VALID,100,VALID,-0.0849042,VALID,20.4664,VALID,161,VALID,0,
2009-06-12, 01:01:00,VALID,917.989,VALID,0,VALID,100,VALID,-0.0679233,VALID,20.5024,VALID,160,VALID,0,
2009-06-12, 01:02:00,VALID,917.983,VALID,0,VALID,100,VALID,-0.0509425,VALID,20.5218,VALID,161,VALID,0,
2009-06-12, 01:03:00,VALID,917.956,VALID,0,VALID,100,VALID,-0.0169808,VALID,20.5251,VALID,161,VALID,0,
2009-06-12, 01:04:00,VALID,917.953,VALID,0,VALID,100,VALID,-0.0169808,VALID,20.5343,VALID,161,VALID,0,
2009-06-12, 01:05:00,VALID,917.948,VALID,0,VALID,100,VALID,-0.0509425,VALID,20.5575,VALID,161,VALID,0,
2009-06-12, 01:06:00,VALID,917.946,VALID,0,VALID,100,VALID,0,VALID,20.5573,VALID,161,VALID,0,
2009-06-12, 01:07:00,VALID,917.956,VALID,0,VALID,100,VALID,-0.0339617,VALID,20.5638,VALID,161,VALID,0,
2009-06-12, 01:08:00,VALID,917.948,VALID,0,VALID,100,VALID,-0.0509425,VALID,20.5248,VALID,161,VALID,0,
2009-06-12, 01:09:00,VALID,917.963,VALID,0,VALID,100,VALID,-0.0169808,VALID,20.4467,VALID,155,VALID,0,
2009-06-12, 01:10:00,VALID,917.94,VALID,0,VALID,100,VALID,-0.0169808,VALID,20.3628,VALID,135,VALID,0,
2009-06-12, 01:11:00,VALID,917.933,VALID,0,VALID,100,VALID,0,VALID,20.3039,VALID,124,VALID,0,
2009-06-12, 01:12:00,VALID,917.935,VALID,0,VALID,100,VALID,0.0679233,VALID,20.2604,VALID,124,VALID,0,
2009-06-12, 01:13:00,VALID,917.923,VALID,0,VALID,100,VALID,0.0679233,VALID,20.2444,VALID,124,VALID,0,
2009-06-12, 01:14:00,VALID,917.936,VALID,0,VALID,100,VALID,0.0679233,VALID,20.2766,VALID,124,VALID,0,
2009-06-12, 01:15:00,VALID,917.951,VALID,0,VALID,100,VALID,0.0679233,VALID,20.3286,VALID,124,VALID,0,
2009-06-12, 01:16:00,VALID,917.957,VALID,0,VALID,100,VALID,0.101885,VALID,20.3929,VALID,124,VALID,0,
2009-06-12, 01:17:00,VALID,917.959,VALID,0,VALID,100,VALID,0.0849042,VALID,20.4481,VALID,124,VALID,0,
2009-06-12, 01:18:00,VALID,917.959,VALID,0,VALID,100,VALID,0.0339617,VALID,20.4608,VALID,124,VALID,0,
2009-06-12, 01:19:00,VALID,917.967,VALID,0,VALID,100,VALID,0.0849042,VALID,20.4249,VALID,124,VALID,0,
2009-06-12, 01:20:00,VALID,917.968,VALID,0,VALID,100,VALID,0.101885,VALID,20.4586,VALID,124,VALID,0,
2009-06-12, 01:21:00,VALID,917.984,VALID,0,VALID,100,VALID,0.101885,VALID,20.4871,VALID,124,VALID,0,
2009-06-12, 01:22:00,VALID,918.001,VALID,0,VALID,100,VALID,0.0849042,VALID,20.5398,VALID,124,VALID,0,
2009-06-12, 01:23:00,VALID,917.995,VALID,0,VALID,100,VALID,0.0169808,VALID,20.5105,VALID,124,VALID,0,
2009-06-12, 01:24:00,VALID,917.996,VALID,0,VALID,100,VALID,0.0339617,VALID,20.4321,VALID,124,VALID,0,
2009-06-12, 01:25:00,VALID,917.984,VALID,0,VALID,100,VALID,0.101885,VALID,20.4356,VALID,124,VALID,0,
2009-06-12, 01:26:00,VALID,917.968,VALID,0,VALID,100,VALID,0.0679233,VALID,20.4356,VALID,124,VALID,0,
2009-06-12, 01:27:00,VALID,917.962,VALID,0,VALID,100,VALID,-0.0509425,VALID,20.4562,VALID,124,VALID,0,
2009-06-12, 01:28:00,VALID,917.952,VALID,0,VALID,100,VALID,-0.0339617,VALID,20.4854,VALID,124,VALID,0,
2009-06-12, 01:29:00,VALID,917.943,VALID,0,VALID,100,VALID,-0.0339617,VALID,20.5218,VALID,124,VALID,0,
2009-06-12, 01:30:00,VALID,917.947,VALID,0,VALID,100,VALID,0,VALID,20.5673,VALID,124,VALID,0,
2009-06-12, 01:31:00,VALID,917.959,VALID,0,VALID,100,VALID,-0.0339617,VALID,20.5962,VALID,124,VALID,0,
2009-06-12, 01:32:00,VALID,917.961,VALID,0,VALID,100,VALID,-0.0169808,VALID,20.6187,VALID,124,VALID,0,
2009-06-12, 01:33:00,VALID,917.968,VALID,0,VALID,100,VALID,-0.0509425,VALID,20.6065,VALID,124,VALID,0,
2009-06-12, 01:34:00,VALID,917.972,VALID,0,VALID,100,VALID,0,VALID,20.58,VALID,124,VALID,0,
2009-06-12, 01:35:00,VALID,917.97,VALID,0,VALID,100,VALID,-0.0169808,VALID,20.5835,VALID,124,VALID,0,
2009-06-12, 01:36:00,VALID,917.957,VALID,0,VALID,100,VALID,-0.0339617,VALID,20.5803,VALID,124,VALID,0,
2009-06-12, 01:37:00,VALID,917.953,VALID,0,VALID,100,VALID,-0.0679233,VALID,20.5865,VALID,124,VALID,0,
2009-06-12, 01:38:00,VALID,917.943,VALID,0,VALID,100,VALID,-0.0339617,VALID,20.6095,VALID,124,VALID,0,
2009-06-12, 01:39:00,VALID,917.925,VALID,0,VALID,100,VALID,0,VALID,20.6154,VALID,124,VALID,0,
2009-06-12, 01:40:00,VALID,917.913,VALID,0,VALID,100,VALID,0,VALID,20.6611,VALID,124,VALID,0,
2009-06-12, 01:41:00,VALID,917.905,VALID,0,VALID,100,VALID,0,VALID,20.6806,VALID,124,VALID,0,
2009-06-12, 01:42:00,VALID,917.889,VALID,0,VALID,100,VALID,-0.0509425,VALID,20.7101,VALID,124,VALID,0,
2009-06-12, 01:43:00,VALID,917.889,VALID,0,VALID,100,VALID,-0.0509425,VALID,20.7133,VALID,124,VALID,0,
2009-06-12, 01:44:00,VALID,917.883,VALID,0,VALID,100,VALID,-0.0509425,VALID,20.7196,VALID,124,VALID,0,
2009-06-12, 01:45:00,VALID,917.882,VALID,0,VALID,100,VALID,-0.0169808,VALID,20.7293,VALID,124,VALID,0,
2009-06-12, 01:46:00,VALID,917.884,VALID,0,VALID,100,VALID,-0.0339617,VALID,20.7261,VALID,75,VALID,0,
2009-06-12, 01:47:00,VALID,917.852,VALID,0,VALID,100,VALID,-0.0169808,VALID,20.7193,VALID,25,VALID,0,
2009-06-12, 01:48:00,VALID,917.841,VALID,0,VALID,100,VALID,-0.0509425,VALID,20.7096,VALID,21,VALID,0,
2009-06-12, 01:49:00,VALID,917.822,VALID,0,VALID,100,VALID,0,VALID,20.729,VALID,18,VALID,0,
2009-06-12, 01:50:00,VALID,917.794,VALID,0,VALID,100,VALID,-0.0509425,VALID,20.729,VALID,18,VALID,0,
2009-06-12, 01:51:00,VALID,917.763,VALID,0,VALID,100,VALID,-0.0339617,VALID,20.7293,VALID,18,VALID,0,
2009-06-12, 01:52:00,VALID,917.761,VALID,0,VALID,100,VALID,0,VALID,20.7088,VALID,11,VALID,0,
2009-06-12, 01:53:00,VALID,917.752,VALID,0,VALID,100,VALID,-0.0169808,VALID,20.6963,VALID,360,VALID,0,
2009-06-12, 01:54:00,VALID,917.729,VALID,0,VALID,100,VALID,-0.0509425,VALID,20.6836,VALID,360,VALID,0,
2009-06-12, 01:55:00,VALID,917.702,VALID,0,VALID,100,VALID,-0.0169808,VALID,20.6868,VALID,360,VALID,0,
2009-06-12, 01:56:00,VALID,917.673,VALID,0,VALID,100,VALID,-0.0169808,VALID,20.6968,VALID,360,VALID,0,
2009-06-12, 01:57:00,VALID,917.669,VALID,0,VALID,100,VALID,-0.0169808,VALID,20.6958,VALID,360,VALID,0,
2009-06-12, 01:58:00,VALID,917.661,VALID,0,VALID,100,VALID,-0.0339617,VALID,20.7196,VALID,1,VALID,0,
2009-06-12, 01:59:00,VALID,917.669,VALID,0,VALID,100,VALID,-0.0169808,VALID,20.7323,VALID,2,VALID,0,
2009-06-12, 02:00:00,VALID,917.682,VALID,0,VALID,100,VALID,0,VALID,20.7031,VALID,2,VALID,0,
2009-06-12, 02:01:00,VALID,917.688,VALID,0,VALID,100,VALID,-0.0169808,VALID,20.6809,VALID,2,VALID,0,
2009-06-12, 02:02:00,VALID,917.69,VALID,0,VALID,100,VALID,-0.0509425,VALID,20.6741,VALID,2,VALID,0,
2009-06-12, 02:03:00,VALID,917.697,VALID,0,VALID,100,VALID,-0.0169808,VALID,20.6774,VALID,6,VALID,0,
2009-06-12, 02:04:00,VALID,917.698,VALID,0,VALID,100,VALID,-0.0339617,VALID,20.6609,VALID,17,VALID,0,
2009-06-12, 02:05:00,VALID,917.688,VALID,0,VALID,100,VALID,-0.0509425,VALID,20.6611,VALID,32,VALID,0,
2009-06-12, 02:06:00,VALID,917.698,VALID,0,VALID,100,VALID,-0.0509425,VALID,20.6384,VALID,37,VALID,0,
2009-06-12, 02:07:00,VALID,917.709,VALID,0,VALID,100,VALID,-0.0339617,VALID,20.583,VALID,37,VALID,0,
2009-06-12, 02:08:00,VALID,917.722,VALID,0,VALID,100,VALID,0,VALID,20.5511,VALID,40,VALID,0,
2009-06-12, 02:09:00,VALID,917.711,VALID,0,VALID,100,VALID,-0.0339617,VALID,20.5051,VALID,43,VALID,0,
2009-06-12, 02:10:00,VALID,917.715,VALID,0,VALID,100,VALID,0,VALID,20.4791,VALID,46,VALID,0,
2009-06-12, 02:11:00,VALID,917.723,VALID,0,VALID,100,VALID,-0.0169808,VALID,20.4402,VALID,46,VALID,0,
2009-06-12, 02:12:00,VALID,917.719,VALID,0,VALID,100,VALID,-0.0509425,VALID,20.418,VALID,46,VALID,0,
2009-06-12, 02:13:00,VALID,917.732,VALID,0,VALID,100,VALID,-0.0509425,VALID,20.4018,VALID,46,VALID,0,
2009-06-12, 02:14:00,VALID,917.749,VALID,0,VALID,100,VALID,-0.0169808,VALID,20.3983,VALID,46,VALID,0,
2009-06-12, 02:15:00,VALID,917.733,VALID,0,VALID,100,VALID,-0.0509425,VALID,20.4012,VALID,46,VALID,0,
2009-06-12, 02:16:00,VALID,917.724,VALID,0,VALID,100,VALID,0,VALID,20.4277,VALID,46,VALID,0,
2009-06-12, 02:17:00,VALID,917.725,VALID,0,VALID,100,VALID,-0.0679233,VALID,20.4504,VALID,46,VALID,0,
2009-06-12, 02:18:00,VALID,917.709,VALID,0,VALID,100,VALID,-0.0679233,VALID,20.4497,VALID,46,VALID,0,
2009-06-12, 02:19:00,VALID,917.729,VALID,0,VALID,100,VALID,-0.101885,VALID,20.4602,VALID,46,VALID,0,
2009-06-12, 02:20:00,VALID,917.711,VALID,0,VALID,100,VALID,-0.0339617,VALID,20.4469,VALID,46,VALID,0,
2009-06-12, 02:21:00,VALID,917.711,VALID,0,VALID,100,VALID,-0.0509425,VALID,20.4564,VALID,46,VALID,0,
2009-06-12, 02:22:00,VALID,917.684,VALID,0,VALID,100,VALID,-0.0509425,VALID,20.4621,VALID,46,VALID,0,
2009-06-12, 02:23:00,VALID,917.686,VALID,0,VALID,100,VALID,-0.0339617,VALID,20.4826,VALID,46,VALID,0,
2009-06-12, 02:24:00,VALID,917.676,VALID,0,VALID,100,VALID,-0.0509425,VALID,20.5021,VALID,46,VALID,0,
2009-06-12, 02:25:00,VALID,917.675,VALID,0,VALID,100,VALID,-0.0169808,VALID,20.5151,VALID,46,VALID,0,
2009-06-12, 02:26:00,VALID,917.695,VALID,0,VALID,100,VALID,-0.0339617,VALID,20.5116,VALID,46,VALID,0,
2009-06-12, 02:27:00,VALID,917.71,VALID,0,VALID,100,VALID,-0.0849042,VALID,20.5248,VALID,46,VALID,0,
2009-06-12, 02:28:00,VALID,917.706,VALID,0,VALID,100,VALID,-0.0679233,VALID,20.5608,VALID,46,VALID,0,
2009-06-12, 02:29:00,VALID,917.717,VALID,0,VALID,100,VALID,-0.0169808,VALID,20.5762,VALID,46,VALID,0,
2009-06-12, 02:30:00,VALID,917.709,VALID,0,VALID,100,VALID,-0.0509425,VALID,20.6092,VALID,46,VALID,0,
2009-06-12, 02:31:00,VALID,917.709,VALID,0,VALID,100,VALID,-0.0509425,VALID,20.6387,VALID,46,VALID,0,
2009-06-12, 02:32:00,VALID,917.713,VALID,0,VALID,100,VALID,-0.0679233,VALID,20.6417,VALID,46,VALID,0,
2009-06-12, 02:33:00,VALID,917.714,VALID,0,VALID,100,VALID,-0.0849042,VALID,20.6614,VALID,116,VALID,0,
2009-06-12, 02:34:00,VALID,917.734,VALID,0,VALID,100,VALID,-0.0849042,VALID,20.6617,VALID,180,VALID,0,
2009-06-12, 02:35:00,VALID,917.76,VALID,0,VALID,100,VALID,-0.0679233,VALID,20.6511,VALID,180,VALID,0,
2009-06-12, 02:36:00,VALID,917.768,VALID,0,VALID,100,VALID,-0.0679233,VALID,20.6611,VALID,180,VALID,0,
2009-06-12, 02:37:00,VALID,917.763,VALID,0,VALID,100,VALID,0,VALID,20.6744,VALID,180,VALID,0,
2009-06-12, 02:38:00,VALID,917.748,VALID,0,VALID,100,VALID,-0.101885,VALID,20.6806,VALID,180,VALID,0,
2009-06-12, 02:39:00,VALID,917.74,VALID,0,VALID,100,VALID,-0.0339617,VALID,20.6841,VALID,181,VALID,0,
2009-06-12, 02:40:00,VALID,917.734,VALID,0,VALID,100,VALID,-0.0679233,VALID,20.6839,VALID,181,VALID,0,
2009-06-12, 02:41:00,VALID,917.723,VALID,0,VALID,100,VALID,0,VALID,20.6836,VALID,181,VALID,0,
2009-06-12, 02:42:00,VALID,917.71,VALID,0,VALID,100,VALID,-0.0169808,VALID,20.6774,VALID,181,VALID,0,
2009-06-12, 02:43:00,VALID,917.715,VALID,0,VALID,100,VALID,-0.0169808,VALID,20.6644,VALID,181,VALID,0,
2009-06-12, 02:44:00,VALID,917.713,VALID,0,VALID,100,VALID,-0.0339617,VALID,20.6776,VALID,181,VALID,0,
2009-06-12, 02:45:00,VALID,917.718,VALID,0,VALID,100,VALID,-0.0169808,VALID,20.6968,VALID,181,VALID,0,
2009-06-12, 02:46:00,VALID,917.717,VALID,0,VALID,100,VALID,-0.0849042,VALID,20.6968,VALID,181,VALID,0,
2009-06-12, 02:47:00,VALID,917.706,VALID,0,VALID,100,VALID,-0.0509425,VALID,20.7163,VALID,181,VALID,0,
2009-06-12, 02:48:00,VALID,917.694,VALID,0,VALID,100,VALID,-0.0679233,VALID,20.7423,VALID,181,VALID,0,
2009-06-12, 02:49:00,VALID,917.697,VALID,0,VALID,100,VALID,-0.0509425,VALID,20.7683,VALID,181,VALID,0,
2009-06-12, 02:50:00,VALID,917.697,VALID,0,VALID,100,VALID,-0.0679233,VALID,20.7912,VALID,181,VALID,0,
2009-06-12, 02:51:00,VALID,917.698,VALID,0,VALID,100,VALID,-0.0339617,VALID,20.7715,VALID,181,VALID,0,
2009-06-12, 02:52:00,VALID,917.709,VALID,0,VALID,100,VALID,-0.0509425,VALID,20.7193,VALID,181,VALID,0,
2009-06-12, 02:53:00,VALID,917.728,VALID,0,VALID,100,VALID,-0.0509425,VALID,20.6706,VALID,181,VALID,0,
2009-06-12, 02:54:00,VALID,917.736,VALID,0,VALID,100,VALID,-0.0509425,VALID,20.6511,VALID,181,VALID,0,
2009-06-12, 02:55:00,VALID,917.755,VALID,0,VALID,100,VALID,-0.0849042,VALID,20.6157,VALID,181,VALID,0,
2009-06-12, 02:56:00,VALID,917.776,VALID,0,VALID,100,VALID,-0.0169808,VALID,20.5932,VALID,181,VALID,0,
2009-06-12, 02:57:00,VALID,917.78,VALID,0,VALID,100,VALID,-0.0509425,VALID,20.5703,VALID,181,VALID,0,
2009-06-12, 02:58:00,VALID,917.773,VALID,0,VALID,100,VALID,-0.0849042,VALID,20.58,VALID,181,VALID,0,
2009-06-12, 02:59:00,VALID,917.762,VALID,0,VALID,100,VALID,-0.0849042,VALID,20.6065,VALID,181,VALID,0,
2009-06-12, 03:00:00,VALID,917.758,VALID,0,VALID,100,VALID,-0.0509425,VALID,20.5962,VALID,84,VALID,0,
2009-06-12, 03:01:00,VALID,917.739,VALID,0,VALID,100,VALID,-0.0169808,VALID,20.5668,VALID,46,VALID,0,
2009-06-12, 03:02:00,VALID,917.724,VALID,0,VALID,100,VALID,-0.101885,VALID,20.554,VALID,46,VALID,0,
2009-06-12, 03:03:00,VALID,917.705,VALID,0,VALID,100,VALID,-0.0339617,VALID,20.5508,VALID,47,VALID,0,
2009-06-12, 03:04:00,VALID,917.705,VALID,0,VALID,100,VALID,-0.0339617,VALID,20.5475,VALID,52,VALID,0,
2009-06-12, 03:05:00,VALID,917.688,VALID,0,VALID,100,VALID,-0.0509425,VALID,20.5281,VALID,54,VALID,0,
2009-06-12, 03:06:00,VALID,917.666,VALID,0,VALID,100,VALID,-0.0849042,VALID,20.5118,VALID,54,VALID,0,
2009-06-12, 03:07:00,VALID,917.636,VALID,0,VALID,100,VALID,-0.0849042,VALID,20.4859,VALID,54,VALID,0,
2009-06-12, 03:08:00,VALID,917.633,VALID,0,VALID,100,VALID,-0.0339617,VALID,20.4694,VALID,54,VALID,0,
2009-06-12, 03:09:00,VALID,917.635,VALID,0,VALID,100,VALID,0,VALID,20.4729,VALID,54,VALID,0,
2009-06-12, 03:10:00,VALID,917.641,VALID,0,VALID,100,VALID,-0.0169808,VALID,20.4726,VALID,54,VALID,0,
2009-06-12, 03:11:00,VALID,917.674,VALID,0,VALID,100,VALID,0,VALID,20.4726,VALID,54,VALID,0,
2009-06-12, 03:12:00,VALID,917.697,VALID,0,VALID,100,VALID,-0.0339617,VALID,20.4694,VALID,54,VALID,0,
2009-06-12, 03:13:00,VALID,917.708,VALID,0,VALID,100,VALID,-0.0679233,VALID,20.4464,VALID,56,VALID,0,
2009-06-12, 03:14:00,VALID,917.731,VALID,0,VALID,100,VALID,0,VALID,20.4464,VALID,58,VALID,0,
2009-06-12, 03:15:00,VALID,917.732,VALID,0,VALID,100,VALID,-0.0509425,VALID,20.4404,VALID,59,VALID,0,
2009-06-12, 03:16:00,VALID,917.717,VALID,0,VALID,100,VALID,-0.0339617,VALID,20.4404,VALID,59,VALID,0,
2009-06-12, 03:17:00,VALID,917.713,VALID,0,VALID,100,VALID,-0.0339617,VALID,20.4432,VALID,59,VALID,0,
2009-06-12, 03:18:00,VALID,917.711,VALID,0,VALID,100,VALID,-0.0679233,VALID,20.4632,VALID,59,VALID,0,
2009-06-12, 03:19:00,VALID,917.713,VALID,0,VALID,100,VALID,-0.0339617,VALID,20.4691,VALID,59,VALID,0,
2009-06-12, 03:20:00,VALID,917.716,VALID,0,VALID,100,VALID,-0.0679233,VALID,20.4954,VALID,59,VALID,0,
2009-06-12, 03:21:00,VALID,917.697,VALID,0,VALID,100,VALID,-0.0169808,VALID,20.5146,VALID,59,VALID,0,
2009-06-12, 03:22:00,VALID,917.686,VALID,0,VALID,100,VALID,-0.0339617,VALID,20.5211,VALID,59,VALID,0,
2009-06-12, 03:23:00,VALID,917.678,VALID,0,VALID,100,VALID,-0.0679233,VALID,20.5443,VALID,59,VALID,0,
2009-06-12, 03:24:00,VALID,917.678,VALID,0,VALID,100,VALID,-0.0509425,VALID,20.5535,VALID,59,VALID,0,
2009-06-12, 03:25:00,VALID,917.666,VALID,0,VALID,100,VALID,-0.0339617,VALID,20.563,VALID,59,VALID,0,
2009-06-12, 03:26:00,VALID,917.671,VALID,0,VALID,100,VALID,-0.0339617,VALID,20.5762,VALID,59,VALID,0,
2009-06-12, 03:27:00,VALID,917.668,VALID,0,VALID,100,VALID,-0.135847,VALID,20.5843,VALID,59,VALID,0,
2009-06-12, 03:28:00,VALID,917.683,VALID,0,VALID,100,VALID,-0.101885,VALID,20.604,VALID,59,VALID,0,
2009-06-12, 03:29:00,VALID,917.711,VALID,0,VALID,100,VALID,-0.118866,VALID,20.614,VALID,59,VALID,0,
2009-06-12, 03:30:00,VALID,917.751,VALID,0,VALID,100,VALID,-0.118866,VALID,20.6267,VALID,59,VALID,0,
2009-06-12, 03:31:00,VALID,917.768,VALID,0,VALID,100,VALID,-0.101885,VALID,20.6265,VALID,59,VALID,0,
2009-06-12, 03:32:00,VALID,917.773,VALID,0,VALID,100,VALID,-0.0679233,VALID,20.6427,VALID,59,VALID,0,
2009-06-12, 03:33:00,VALID,917.778,VALID,0,VALID,100,VALID,-0.118866,VALID,20.6557,VALID,59,VALID,0,
2009-06-12, 03:34:00,VALID,917.775,VALID,0,VALID,100,VALID,-0.101885,VALID,20.6584,VALID,59,VALID,0,
2009-06-12, 03:35:00,VALID,917.777,VALID,0,VALID,100,VALID,-0.135847,VALID,20.6784,VALID,59,VALID,0,
2009-06-12, 03:36:00,VALID,917.756,VALID,0,VALID,100,VALID,-0.169808,VALID,20.6884,VALID,59,VALID,0,
2009-06-12, 03:37:00,VALID,917.724,VALID,0,VALID,100,VALID,-0.101885,VALID,20.6841,VALID,59,VALID,0,
2009-06-12, 03:38:00,VALID,917.712,VALID,0,VALID,100,VALID,-0.101885,VALID,20.7011,VALID,59,VALID,0,
2009-06-12, 03:39:00,VALID,917.691,VALID,0,VALID,100,VALID,-0.118866,VALID,20.7068,VALID,59,VALID,0,
2009-06-12, 03:40:00,VALID,917.684,VALID,0,VALID,100,VALID,-0.0849042,VALID,20.7133,VALID,59,VALID,0,
2009-06-12, 03:41:00,VALID,917.68,VALID,0,VALID,100,VALID,-0.101885,VALID,20.7361,VALID,59,VALID,0,
2009-06-12, 03:42:00,VALID,917.68,VALID,0,VALID,100,VALID,-0.0169808,VALID,20.7515,VALID,59,VALID,0,
2009-06-12, 03:43:00,VALID,917.668,VALID,0,VALID,100,VALID,0,VALID,20.7712,VALID,59,VALID,0,
2009-06-12, 03:44:00,VALID,917.666,VALID,0,VALID,100,VALID,0,VALID,20.7702,VALID,59,VALID,0,
2009-06-12, 03:45:00,VALID,917.671,VALID,0,VALID,100,VALID,-0.0339617,VALID,20.7869,VALID,36,VALID,0,
2009-06-12, 03:46:00,VALID,917.664,VALID,0,VALID,100,VALID,0.0169808,VALID,20.7899,VALID,31,VALID,0,
2009-06-12, 03:47:00,VALID,917.661,VALID,0,VALID,100,VALID,-0.0169808,VALID,20.7999,VALID,31,VALID,0,
2009-06-12, 03:48:00,VALID,917.653,VALID,0,VALID,100,VALID,0,VALID,20.7802,VALID,31,VALID,0.0663061,
2009-06-12, 03:49:00,VALID,917.644,VALID,0,VALID,100,VALID,-0.0169808,VALID,20.7572,VALID,31,VALID,0.00976563,
2009-06-12, 03:50:00,VALID,917.648,VALID,0,VALID,100,VALID,0,VALID,20.7642,VALID,31,VALID,0,
2009-06-12, 03:51:00,VALID,917.639,VALID,0,VALID,100,VALID,-0.0169808,VALID,20.7607,VALID,31,VALID,0,
2009-06-12, 03:52:00,VALID,917.633,VALID,0,VALID,100,VALID,0,VALID,20.7542,VALID,31,VALID,0,